CZ-6A DEB, 54296

Orbit data source: Space-Track

CZ-6A DEB, 54296 is space debris in SSO originally from a launch on Fri, 11 Nov 2022 UTC launched from the Taiyaun Space Center, China (TSC). Debris objects in space refer to the collection of defunct objects orbiting the Earth. Examples of debris include non-operational satellites, rocket bodies, and fragments generated from explosions, collisions, or faulty payload assembly.

Loading next visibility...
Identifier
54296, 2022-151AP
Orbit
SSO
Country
Flag of CNCN / PRC
Related business
Manufacturer
SAST
Mission
Spacecraft
Bus & Motor
Unknown
Mass
Unknown
Launch date (UTC)
2022-11-11 (3 years ago)
Launch vehicle
Unknown
Launch site
Taiyaun Space Center, China (TSC)
Object type
Payload
Rocket body
Debris
Shape & HBR
Unknown shape, 0.1 m
Radar Cross Section
Small (<0.1 m²)

Expand to show TLE details & history
Last TLE update: 3 days ago

TLE from 3 days ago
0 CZ-6A DEB
1 54296U 22151AP  25347.06342039  .00002570  00000-0  96390-3 0  9999
2 54296  98.7960  23.5611 0029753 214.3644 145.5615 14.32314043160385
Epoch: 2025-12-13T01:31Z
TLE epoch observation values (Epoch: 2025-12-13T01:31:19.521Z)
Latitude
-0.00004°
Longitude
-81.2663°
Altitude
804.533 km
Speed
7.442 km/s
True Right ascension
01h 34m 14s
True Declination
0° 00' 00"
Sunlit
Object was in full shadow at epoch
Visualization orbit readout
Latitude
Unknown
Longitude
Unknown
Altitude
Unknown
Speed
Unknown
Apparent Right ascension
Unknown
Apparent Declination
Unknown
Sunlit
N/A
Visualization observer readout
Local Sidereal Time
06:13:04
Azimuth
Unknown
Elevation
Unknown
Doppler factor
Unknown
Orbital elements
Apogee altitude
802.454 km
Perigee altitude
759.852 km
Semi-major axis
7,159.29 km
Eccentricity
0.00298
Inclination
98.796°
RAAN
23.5611°
Arg. of periapsis
214.3644°
True anomaly
145.75372°
Mean anomaly
145.5615°
Eccentric anomaly
145.65767°
Mean motion
3.58293 °/min
Orbital period
100.48 mins
BSTAR
0.0009639
Loading maneuver chart data...
Computing Atmospheric mass density...
Loading historical data...
Loading historical data...
Loading historical data...
Loading historical data...
Loading historical data...
Loading historical data...
Loading historical data...

Documentation

Showing up to 5 results
|